Flag for Germany Weather past 2 weeks in Kassel, Hesse, Germany

Now
64 °F

Fog.


Feels Like: 64 °F
Forecast: 57 / 76 °F
Wind: 8 mph from Northwest

Location: Kassel / Calden

Current Time: Jul 30, 2014 at 8:29:43 AM

Latest Report: Jul 30, 2014 at 7:50 AM


Visibility: 2 mi

Pressure: 29.80 "Hg

Humidity: 100%

Dew point: 64 °F

Location of KasselLocation

Historic Weather in Kassel — Graph

°F

Kassel temperature yesterday

Maximum temperature yesterday: 77 °F (at 4:20 PM)
Minimum temperature yesterday: 63 °F (at 6:20 AM)
Average temperature yesterday: 70 °F

Past Weeks' High & Low Weather Summary

 TemperatureHumidityPressure
High90 °F (Jul 19, 4:50 PM)100% (Jul 17, 5:50 AM)30.21 "Hg (Jul 17, 5:50 AM)
Low55 °F (Jul 17, 5:50 AM)31% (Jul 19, 1:20 PM)29.77 "Hg (Jul 29, 3:50 PM)
Average72 °F70%30.00 "Hg
* Reported Jul 15 7:20 AM — Jul 30 7:20 AM, Kassel, Weather by CustomWeather, © 2014

Note: Actual official high and low records may vary slightly from our data, if they occured in-between our weather recording intervals... More about our weather records

Advertising

Kassel weather history for previous 24 hours

 ConditionsComfort  
Time TempWeatherWind HumidityBarometerVisibility
7:20 AM
Jul 30
64 °FLight rain. Mostly cloudy.5 mph100%29.80 "Hg2 mi
6:50 AM64 °FLight rain. More clouds than sun.3 mph100%29.80 "Hg2 mi
6:20 AM64 °FRain. Mostly cloudy.5 mph94%29.80 "Hg1 mi
5:50 AM64 °FRain. Overcast.5 mph94%29.77 "Hg1 mi
9:50 PM
Jul 29
70 °FClear.8 mph83%29.77 "Hg6 mi
9:20 PM70 °FSunny.7 mph88%29.77 "Hg10 mi
8:50 PM72 °FScattered clouds.6 mph83%29.77 "HgN/A
8:20 PM72 °FBroken clouds.5 mph83%29.77 "HgN/A
7:50 PM73 °FBroken clouds.8 mph78%29.77 "HgN/A
7:20 PM73 °FPartly sunny.8 mph78%29.77 "HgN/A
6:50 PM73 °FBroken clouds.8 mph78%29.77 "HgN/A
6:20 PM73 °FBroken clouds.12 mph78%29.77 "HgN/A
5:50 PM73 °FBroken clouds.12 mph78%29.77 "HgN/A
5:20 PM73 °FBroken clouds.12 mph78%29.77 "HgN/A
4:50 PM75 °FBroken clouds.14 mph74%29.77 "HgN/A
4:20 PM77 °FBroken clouds.12 mph74%29.77 "HgN/A
3:50 PM75 °FScattered clouds.13 mph74%29.77 "HgN/A
3:20 PM75 °FScattered clouds.9 mph78%29.80 "HgN/A
2:50 PM73 °FScattered clouds.8 mph78%29.80 "HgN/A
2:20 PM72 °FScattered clouds.9 mph83%29.83 "HgN/A
1:50 PM72 °FScattered clouds.8 mph83%29.83 "HgN/A
1:20 PM68 °FBroken clouds.7 mph88%29.83 "Hg6 mi
12:50 PM68 °FBroken clouds.9 mph88%29.83 "Hg5 mi
12:20 PM66 °FLight rain. Broken clouds.3 mph94%29.86 "Hg4 mi
11:50 AM66 °FLight rain. Broken clouds.3 mph94%29.86 "Hg4 mi
11:20 AM66 °FRain. Broken clouds.3 mph94%29.86 "Hg3 mi
10:50 AM66 °FLight rain. Broken clouds.5 mph94%29.86 "Hg3 mi
10:20 AM66 °FLight rain. Broken clouds.3 mph94%29.86 "Hg2 mi
9:50 AM66 °FRain. Broken clouds.2 mph94%29.86 "Hg3 mi
9:20 AM66 °FFog.5 mph94%29.83 "Hg3 mi
8:50 AM66 °FLight rain. Scattered clouds.1 mph94%29.83 "Hg2 mi
8:20 AM66 °FFog.3 mph94%29.86 "Hg3 mi
Weather by CustomWeather, © 2014

See weather overviewHow to use our weather pages